EW6171 Weather Reports


Display with metric or nautical units.
time (UTC)temp
F
wind
direction
speed
MPH
gust
MPH
rain 1hr
in
rain 24hr
in
rain mn
in
humidity
%
barometer
mb
20260506004732 0 10 10.0 15.0 0.00 0.00 0.00 1003.6
20260506004223 0 10 11.0 15.0 0.00 0.00 0.00 1003.6
20260506003943 0 10 10.0 14.0 0.00 0.00 0.00 1003.6
20260506003203 0 10 10.0 13.0 0.00 0.00 0.00 1003.7
20260506002652 0 10 11.0 15.0 0.00 0.00 0.00 1003.6
20260506002140 0 10 11.0 15.0 0.00 0.00 0.00 1003.6
20260506001625 0 10 11.0 15.0 0.00 0.00 0.00 1003.6
20260506001347 0 10 11.0 15.0 0.00 0.00 0.00 1003.6
20260506000604 0 10 11.0 14.0 0.00 0.00 0.00 1003.6
20260506000056 0 10 11.0 15.0 0.00 0.00 0.00 1003.7
20260505235543 0 10 11.0 15.0 0.00 0.00 0.00 1003.7
20260505235033 0 10 11.0 16.0 0.00 0.00 0.00 1003.7
20260505234528 0 185 12.0 16.0 0.00 0.00 0.00 1003.7
20260505234019 0 10 12.0 16.0 0.00 0.00 0.00 1003.7
20260505233739 0 168 11.0 15.0 0.00 0.00 0.00 1003.7
20260505233227 0 10 11.0 16.0 0.00 0.00 0.00 1003.7
20260505232456 0 10 12.0 16.0 0.00 0.00 0.00 1003.7
20260505232218 0 10 12.0 16.0 0.00 0.00 0.00 1003.7
20260505231434 0 10 11.0 16.0 0.00 0.00 0.00 1003.7
20260505230933 0 10 11.0 15.0 0.00 0.00 0.00 1003.7
20260505230434 0 10 11.0 15.0 0.00 0.00 0.00 1003.9
20260505225923 0 210 11.0 14.0 0.00 0.00 0.00 1003.9
20260505225412 0 163 11.0 17.0 0.00 0.00 0.00 1003.9
20260505224903 0 10 12.0 17.0 0.00 0.00 0.00 1003.9
20260505224352 0 10 12.0 16.0 0.00 0.00 0.00 1003.9
20260505223843 0 10 12.0 16.0 0.00 0.00 0.00 1004.0
20260505223604 0 10 12.0 15.0 0.00 0.00 0.00 1004.0
20260505222824 0 10 12.0 15.0 0.00 0.00 0.00 1004.1
20260505222313 0 10 12.0 15.0 0.00 0.00 0.00 1004.0
20260505221803 0 10 11.0 14.0 0.00 0.00 0.00 1004.1
20260505221252 0 10 11.0 15.0 0.00 0.00 0.00 1004.1
20260505220743 0 10 11.0 15.0 0.00 0.00 0.00 1004.0
20260505220504 0 10 12.0 16.0 0.00 0.00 0.00 1004.2
20260505215723 0 10 12.0 16.0 0.00 0.00 0.00 1004.2
20260505215212 0 161 11.0 15.0 0.00 0.00 0.00 1004.4
20260505214702 0 10 11.0 15.0 0.00 0.00 0.00 1004.4
20260505214423 0 10 11.0 15.0 0.00 0.00 0.00 1004.6
20260505213643 0 10 11.0 14.0 0.00 0.00 0.00 1004.5
20260505213404 0 10 12.0 16.0 0.00 0.00 0.00 1004.6
20260505212624 0 153 11.0 16.0 0.00 0.00 0.00 1004.6
20260505212112 0 163 11.0 15.0 0.00 0.00 0.00 1004.8
20260505211603 0 10 11.0 14.0 0.00 0.00 0.00 1004.7
20260505211052 0 10 11.0 15.0 0.00 0.00 0.00 1004.7
20260505210544 0 10 11.0 15.0 0.00 0.00 0.00 1004.8
20260505210303 0 10 11.0 15.0 0.00 0.00 0.00 1004.8
20260505205523 0 10 10.0 15.0 0.00 0.00 0.00 1004.8
20260505205012 0 10 11.0 14.0 0.00 0.00 0.00 1004.9
20260505204503 0 10 11.0 15.0 0.00 0.00 0.00 1004.9
20260505204224 0 10 12.0 15.0 0.00 0.00 0.00 1005.0
20260505203442 0 158 12.0 15.0 0.00 0.00 0.00 1005.1
20260505202932 0 145 12.0 15.0 0.00 0.00 0.00 1005.1
20260505202422 0 10 12.0 15.0 0.00 0.00 0.00 1005.2
20260505201904 0 10 11.0 14.0 0.00 0.00 0.00 1005.2
20260505201354 0 184 11.0 16.0 0.00 0.00 0.00 1005.3
20260505200844 0 10 11.0 16.0 0.00 0.00 0.00 1005.3
20260505200334 0 10 9.0 15.0 0.00 0.00 0.00 1005.4
20260505200055 0 10 9.0 14.0 0.00 0.00 0.00 1005.6
20260505195314 0 10 10.0 16.0 0.00 0.00 0.00 1005.7
20260505194804 0 204 11.0 16.0 0.00 0.00 0.00 1005.7
20260505194255 0 10 10.0 16.0 0.00 0.00 0.00 1005.7
20260505193744 0 10 9.0 16.0 0.00 0.00 0.00 1005.7
20260505193238 0 10 11.0 15.0 0.00 0.00 0.00 1005.7
20260505192730 0 10 11.0 15.0 0.00 0.00 0.00 1005.8
20260505192453 0 214 10.0 16.0 0.00 0.00 0.00 1005.8
20260505191713 0 202 11.0 16.0 0.00 0.00 0.00 1005.8
20260505191206 0 10 11.0 15.0 0.00 0.00 0.00 1005.8
20260505190704 0 10 11.0 15.0 0.00 0.00 0.00 1005.9
20260505190203 0 191 11.0 15.0 0.00 0.00 0.00 1005.9
20260505185655 0 214 12.0 16.0 0.00 0.00 0.00 1006.0
20260505185141 0 192 11.0 15.0 0.00 0.00 0.00 1006.0
20260505184635 0 195 11.0 15.0 0.00 0.00 0.00 1005.9
20260505184358 0 10 10.0 16.0 0.00 0.00 0.00 1005.9
20260505183852 0 233 10.0 16.0 0.00 0.00 0.00 1005.9
20260505183116 0 10 11.0 16.0 0.00 0.00 0.00 1006.0
20260505182610 0 221 11.0 16.0 0.00 0.00 0.00 1006.1
20260505182107 0 173 11.0 15.0 0.00 0.00 0.00 1006.0
20260505181603 0 181 11.0 16.0 0.00 0.00 0.00 1006.1
20260505181059 0 192 11.0 16.0 0.00 0.00 0.00 1006.1
20260505180556 0 217 11.0 14.0 0.00 0.00 0.00 1006.1
20260505180048 0 203 11.0 16.0 0.00 0.00 0.00 1006.1
20260505175542 0 204 11.0 16.0 0.00 0.00 0.00 1006.1
20260505175042 0 215 12.0 16.0 0.00 0.00 0.00 1006.2
20260505174537 0 223 12.0 16.0 0.00 0.00 0.00 1006.2
20260505174035 0 201 12.0 16.0 0.00 0.00 0.00 1006.2
20260505173534 0 205 11.0 15.0 0.00 0.00 0.00 1006.4
20260505173028 0 217 11.0 15.0 0.00 0.00 0.00 1006.5
20260505172757 0 10 10.0 13.0 0.00 0.00 0.00 1006.5
20260505172018 0 219 10.0 15.0 0.00 0.00 0.00 1006.5
20260505171747 0 198 11.0 15.0 0.00 0.00 0.00 1006.5
20260505171013 0 10 11.0 15.0 0.00 0.00 0.00 1006.5
20260505170742 0 10 11.0 15.0 0.00 0.00 0.00 1006.6
20260505170011 0 10 12.0 15.0 0.00 0.00 0.00 1006.6
20260505165505 0 10 11.0 15.0 0.00 0.00 0.00 1006.7
20260505165002 0 194 11.0 15.0 0.00 0.00 0.00 1006.6
20260505164726 0 203 10.0 15.0 0.00 0.00 0.00 1006.6
20260505163950 0 10 10.0 15.0 0.00 0.00 0.00 1006.6
20260505163443 0 193 11.0 16.0 0.00 0.00 0.00 1006.6
20260505162936 0 221 11.0 16.0 0.00 0.00 0.00 1006.5
20260505162426 0 10 10.0 14.0 0.00 0.00 0.00 1006.5
20260505161920 0 10 10.0 14.0 0.00 0.00 0.00 1006.5
20260505161416 0 202 10.0 15.0 0.00 0.00 0.00 1006.5
20260505161137 0 10 10.0 15.0 0.00 0.00 0.00 1006.5
20260505160358 0 10 10.0 15.0 0.00 0.00 0.00 1006.5
20260505153314 0 210 10.0 15.0 0.00 0.00 0.00 1006.5
20260505152804 0 198 10.0 13.0 0.00 0.00 0.00 1006.4
20260505151744 0 215 9.0 13.0 0.00 0.00 0.00 1006.4
20260505151239 0 201 10.0 13.0 0.00 0.00 0.00 1006.4
20260505150729 0 10 9.0 13.0 0.00 0.00 0.00 1006.4
20260505150220 0 181 9.0 14.0 0.00 0.00 0.00 1006.4
20260505140527 0 10 9.0 13.0 0.00 0.00 0.00 1006.3
20260505124755 0 10 8.0 12.0 0.00 0.00 0.00 1005.8
20260505124245 0 202 7.0 11.0 0.00 0.00 0.00 1005.8
20260505124004 0 202 7.0 11.0 0.00 0.00 0.00 1005.8
20260505123224 0 10 8.0 12.0 0.00 0.00 0.00 1005.7
20260505122714 0 219 8.0 12.0 0.00 0.00 0.00 1005.7
20260505122207 0 10 7.0 11.0 0.00 0.00 0.00 1005.7
20260505121657 0 10 6.0 9.0 0.00 0.00 0.00 1005.7
20260505121157 0 10 6.0 10.0 0.00 0.00 0.00 1005.7
20260505120918 0 10 5.0 10.0 0.00 0.00 0.00 1005.7
20260505120140 0 10 6.0 10.0 0.00 0.00 0.00 1005.6
20260505115630 0 10 6.0 10.0 0.00 0.00 0.00 1005.6
20260505115119 0 10 6.0 9.0 0.00 0.00 0.00 1005.5
20260505114609 0 10 5.0 9.0 0.00 0.00 0.00 1005.5
20260505114331 0 10 5.0 9.0 0.00 0.00 0.00 1005.5
20260505113549 0 10 5.0 9.0 0.00 0.00 0.00 1005.5
20260505113040 0 10 4.0 9.0 0.00 0.00 0.00 1005.5
20260505112801 0 186 4.0 6.0 0.00 0.00 0.00 1005.7
20260505112251 0 10 4.0 8.0 0.00 0.00 0.00 1005.6
20260505111507 0 10 4.0 8.0 0.00 0.00 0.00 1005.6
20260505110958 0 10 4.0 6.0 0.00 0.00 0.00 1005.6
20260505110447 0 184 4.0 6.0 0.00 0.00 0.00 1005.6
20260505101811 0 10 2.0 5.0 0.00 0.00 0.00 1005.5
20260505100744 0 194 3.0 5.0 0.00 0.00 0.00 1005.7
20260505100233 0 184 3.0 6.0 0.00 0.00 0.00 1005.7
20260505095721 0 192 2.0 5.0 0.00 0.00 0.00 1005.8
20260505095209 0 190 3.0 5.0 0.00 0.00 0.00 1005.8
20260505094931 0 10 3.0 5.0 0.00 0.00 0.00 1005.7
20260505094148 0 172 3.0 5.0 0.00 0.00 0.00 1005.7
20260505093916 0 190 3.0 6.0 0.00 0.00 0.00 1005.8
20260505093403 0 10 2.0 6.0 0.00 0.00 0.00 1005.8
20260505092621 0 10 1.0 5.0 0.00 0.00 0.00 1005.8
20260505092116 0 10 1.0 4.0 0.00 0.00 0.00 1005.8
20260505091613 0 189 2.0 5.0 0.00 0.00 0.00 1005.9
20260505091104 0 10 3.0 5.0 0.00 0.00 0.00 1005.8
20260505090553 0 194 3.0 6.0 0.00 0.00 0.00 1005.8
20260505090316 0 195 3.0 6.0 0.00 0.00 0.00 1005.8
20260505085807 0 200 3.0 8.0 0.00 0.00 0.00 1005.8
20260505085300 0 194 4.0 8.0 0.00 0.00 0.00 1005.8
20260505084527 0 204 5.0 8.0 0.00 0.00 0.00 1005.7
20260505084018 0 10 5.0 9.0 0.00 0.00 0.00 1005.7
20260505083740 0 10 5.0 10.0 0.00 0.00 0.00 1005.7
20260505083001 0 10 5.0 9.0 0.00 0.00 0.00 1005.7
20260505082455 0 10 5.0 9.0 0.00 0.00 0.00 1005.9
20260505081949 0 10 5.0 9.0 0.00 0.00 0.00 1006.0
20260505081440 0 185 6.0 10.0 0.00 0.00 0.00 1006.0
20260505080936 0 10 5.0 10.0 0.00 0.00 0.00 1006.1
20260505080702 0 10 5.0 9.0 0.00 0.00 0.00 1006.2
20260505075923 0 10 5.0 9.0 0.00 0.00 0.00 1006.3
20260505075423 0 10 6.0 9.0 0.00 0.00 0.00 1006.3
20260505075148 0 10 6.0 10.0 0.00 0.00 0.00 1006.3
20260505074411 0 10 6.0 10.0 0.00 0.00 0.00 1006.5
20260505073903 0 194 5.0 8.0 0.00 0.00 0.00 1006.6
20260505073402 0 10 5.0 9.0 0.00 0.00 0.00 1006.7
20260505072901 0 10 6.0 10.0 0.00 0.00 0.00 1006.7
20260505072629 0 10 6.0 10.0 0.00 0.00 0.00 1006.7
20260505072117 0 217 5.0 9.0 0.00 0.00 0.00 1006.7
20260505071339 0 205 5.0 10.0 0.00 0.00 0.00 1006.8
20260505070320 0 210 5.0 8.0 0.00 0.00 0.00 1007.0
20260505065817 0 194 4.0 8.0 0.00 0.00 0.00 1007.1
20260505065316 0 191 4.0 7.0 0.00 0.00 0.00 1007.2
20260505064816 0 204 4.0 8.0 0.00 0.00 0.00 1007.2
20260505064315 0 10 4.0 8.0 0.00 0.00 0.00 1007.3
20260505063809 0 10 4.0 8.0 0.00 0.00 0.00 1007.4
20260505063255 0 10 4.0 8.0 0.00 0.00 0.00 1007.4
20260505062756 0 10 5.0 9.0 0.00 0.00 0.00 1007.5
20260505062246 0 199 5.0 9.0 0.00 0.00 0.00 1007.4
20260505061737 0 10 5.0 8.0 0.00 0.00 0.00 1007.5
20260505061231 0 204 4.0 9.0 0.00 0.00 0.00 1007.5
20260505060726 0 196 4.0 9.0 0.00 0.00 0.00 1007.6
20260505060223 0 10 4.0 6.0 0.00 0.00 0.00 1007.6
20260505055720 0 190 4.0 6.0 0.00 0.00 0.00 1007.7
20260505055211 0 200 5.0 8.0 0.00 0.00 0.00 1007.7
20260505054933 0 213 5.0 8.0 0.00 0.00 0.00 1007.6
20260505054154 0 208 5.0 8.0 0.00 0.00 0.00 1007.7
20260505053917 0 195 5.0 9.0 0.00 0.00 0.00 1007.8
20260505053134 0 10 5.0 10.0 0.00 0.00 0.00 1007.9
20260505052626 0 210 6.0 10.0 0.00 0.00 0.00 1008.0
20260505052117 0 203 4.0 9.0 0.00 0.00 0.00 1008.1
20260505051606 0 10 1.0 7.0 0.00 0.00 0.00 1008.0
20260505050546 0 10 0.0 4.0 0.00 0.00 0.00 1007.9
20260505050317 0 213 0.0 4.0 0.00 0.00 0.00 1007.9
20260505041418 0 10 8.0 11.0 0.00 0.00 0.00 1008.0
20260505040906 0 194 8.0 11.0 0.00 0.00 0.00 1008.0
20260505040355 0 10 7.0 11.0 0.00 0.00 0.00 1008.0
20260505035845 0 10 6.0 11.0 0.00 0.00 0.00 1008.1
20260505035336 0 10 6.0 10.0 0.00 0.00 0.00 1008.1
20260505034825 0 10 6.0 10.0 0.00 0.00 0.00 1008.1
20260505034315 0 10 6.0 10.0 0.00 0.00 0.00 1008.2
20260505033805 0 10 6.0 10.0 0.00 0.00 0.00 1008.2
20260505033300 0 10 6.0 10.0 0.00 0.00 0.00 1008.2
20260505032749 0 10 7.0 10.0 0.00 0.00 0.00 1008.0
20260505032240 0 10 6.0 10.0 0.00 0.00 0.00 1008.2
20260505031727 0 10 6.0 10.0 0.00 0.00 0.00 1008.1
20260505031217 0 10 7.0 10.0 0.00 0.00 0.00 1007.9
20260505030707 0 10 7.0 10.0 0.00 0.00 0.00 1008.0
20260505030158 0 10 6.0 10.0 0.00 0.00 0.00 1008.0
20260505025647 0 10 6.0 10.0 0.00 0.00 0.00 1008.0
20260505025136 0 10 7.0 11.0 0.00 0.00 0.00 1008.0
20260505024626 0 10 7.0 11.0 0.00 0.00 0.00 1008.2
20260505024107 0 10 5.0 9.0 0.00 0.00 0.00 1008.3
20260505023549 0 10 5.0 9.0 0.00 0.00 0.00 1008.1
20260505023040 0 10 6.0 10.0 0.00 0.00 0.00 1008.1
20260505022529 0 10 6.0 10.0 0.00 0.00 0.00 1008.1
20260505022019 0 10 5.0 10.0 0.00 0.00 0.00 1008.1
20260505021509 0 10 5.0 9.0 0.00 0.00 0.00 1008.2
20260505020957 0 10 5.0 9.0 0.00 0.00 0.00 1008.0
20260505020439 0 10 5.0 9.0 0.00 0.00 0.00 1008.0
20260505015930 0 10 6.0 9.0 0.00 0.00 0.00 1007.9
20260505015420 0 10 6.0 10.0 0.00 0.00 0.00 1007.9
20260505015139 0 10 4.0 10.0 0.00 0.00 0.00 1007.8
20260505014358 0 10 3.0 9.0 0.00 0.00 0.00 1007.8
20260505013852 0 10 5.0 10.0 0.00 0.00 0.00 1007.7
20260505013341 0 10 5.0 10.0 0.00 0.00 0.00 1007.7
20260505012842 0 10 5.0 10.0 0.00 0.00 0.00 1007.7
20260505012340 0 10 5.0 10.0 0.00 0.00 0.00 1007.7
20260505011841 0 10 7.0 11.0 0.00 0.00 0.00 1007.8
20260505011341 0 10 9.0 13.0 0.00 0.00 0.00 1007.7
20260505010832 0 10 9.0 13.0 0.00 0.00 0.00 1007.6
20260505010322 0 10 8.0 12.0 0.00 0.00 0.00 1007.5
20260505010041 0 10 8.0 13.0 0.00 0.00 0.00 1007.5
20260505005258 0 10 10.0 13.0 0.00 0.00 0.00 1007.6